Hyannis, MA

3:16 PM EST on December 17, 2017 (GMT -0500)
Barnstable Municipal-Boardman-Polando Field

Weather History for KHYA - November, 2010

Change the Weather History Date:

Saturday, November 13, 2010

  Actual Average Record
Temperature  
Mean Temperature 49 °F -  
Max Temperature 55 °F 50 °F 68 °F (1944)
Min Temperature 42 °F 37 °F 21 °F (1962)
Degree Days  
Heating Degree Days 16    
Moisture  
Dew Point 42 °F    
Average Humidity 78    
Maximum Humidity 93    
Minimum Humidity 57    
Precipitation  
Precipitation 0.00 in - - ()
Sea Level Pressure  
Sea Level Pressure 30.16 in    
Wind  
Wind Speed 7 mph (North)    
Max Wind Speed 15 mph    
Max Gust Speed 21 mph    
Visibility 10 miles    
Events      
Averages and records for this station are not official NWS values.
T = Trace of Precipitation, MM = Missing Value Source: NWS Daily Summary

Daily Weather History Graph

Daily Weather History Graph

Search for Another Location

Airport or City:

Trip Planner

Search our weather history database for the weather conditions in past years. The results will help you decide how hot, cold, wet, or windy it might be!

Date:

Astronomy

Nov. 13, 2010 Rise Set
Actual Time 6:27 AM EST 4:22 PM EST
Civil Twilight 5:58 AM EST 4:52 PM EST
Nautical Twilight 5:24 AM EST 5:25 PM EST
Astronomical Twilight 4:51 AM EST 5:58 PM EST
Moon 12:20 PM EST (11/13) 11:28 PM EST (11/13)
Length of Visible Light 10h 54m
Length of Day
9h 54m
Waxing Crescent, 50% of the Moon is Illuminated
Nov 13
Waxing Crescent
Nov 21
Full
Nov 28
Last Quarter
Dec 5
New
Dec 13
First Quarter

Hourly Weather History & Observations

Time (EST) Temp. Windchill Dew Point Humidity Pressure Visibility Wind Dir Wind Speed Gust Speed Precip Events Conditions
12:56 AM 46.0 °F 41.9 °F 39.9 °F 79% 30.26 in 10.0 mi NNE 8.1 mph - N/A   Clear
1:56 AM 46.9 °F - 39.0 °F 74% 30.25 in 10.0 mi NNE 9.2 mph - N/A   Clear
2:56 AM 46.0 °F 43.1 °F 39.0 °F 76% 30.23 in 10.0 mi North 5.8 mph - N/A   Clear
3:56 AM 46.0 °F 43.1 °F 39.9 °F 79% 30.22 in 10.0 mi North 5.8 mph - N/A   Clear
4:56 AM 46.9 °F - 39.9 °F 77% 30.22 in 10.0 mi North 8.1 mph - N/A   Clear
5:56 AM 46.0 °F 41.9 °F 39.9 °F 79% 30.21 in 10.0 mi North 8.1 mph - N/A   Clear
6:56 AM 48.0 °F - 42.1 °F 80% 30.21 in 10.0 mi NNE 6.9 mph - N/A   Clear
7:56 AM 51.1 °F - 43.0 °F 74% 30.20 in 10.0 mi NNE 10.4 mph - N/A   Clear
8:56 AM 53.1 °F - 43.0 °F 69% 30.20 in 10.0 mi North 12.7 mph - N/A   Clear
9:56 AM 55.0 °F - 42.1 °F 62% 30.18 in 10.0 mi North 11.5 mph - N/A   Clear
10:56 AM 55.9 °F - 41.0 °F 57% 30.17 in 10.0 mi North 10.4 mph - N/A   Clear
11:56 AM 55.9 °F - 43.0 °F 62% 30.14 in 10.0 mi North 12.7 mph - N/A   Clear
12:56 PM 55.0 °F - 45.0 °F 69% 30.13 in 10.0 mi North 15.0 mph 20.7 mph N/A   Clear
1:56 PM 55.0 °F - 44.1 °F 67% 30.12 in 10.0 mi North 11.5 mph - N/A   Clear
2:56 PM 54.0 °F - 44.1 °F 69% 30.11 in 10.0 mi North 6.9 mph - N/A   Clear
3:56 PM 51.1 °F - 44.1 °F 77% 30.11 in 10.0 mi North 6.9 mph - N/A   Clear
4:56 PM 48.0 °F - 43.0 °F 83% 30.11 in 10.0 mi North 3.5 mph - N/A   Clear
5:56 PM 46.9 °F - 43.0 °F 86% 30.12 in 10.0 mi North 4.6 mph - N/A   Clear
6:56 PM 43.0 °F - 39.9 °F 89% 30.11 in 10.0 mi Calm Calm - N/A   Clear
7:56 PM 46.0 °F 43.9 °F 43.0 °F 89% 30.11 in 10.0 mi North 4.6 mph - N/A   Clear
8:56 PM 43.0 °F - 41.0 °F 93% 30.11 in 10.0 mi Calm Calm - N/A   Clear
9:56 PM 43.0 °F - 41.0 °F 93% 30.11 in 10.0 mi Calm Calm - N/A   Clear
10:56 PM 43.0 °F - 39.9 °F 89% 30.10 in 10.0 mi Calm Calm - N/A   Clear
11:56 PM 42.1 °F - 39.9 °F 92% 30.10 in 10.0 mi Calm Calm - N/A   Clear